Regional Weather Roundup
Issued by NWS Upton, NY

Current Version | Previous Version | Graphics & Text | Print | Product List | Glossary Off
Versions: 1 2 3 4 5 6 7 8 9 10 11 12 13 14 15 16 17 18 19 20 21 22 23 24 25 26 27 28 29 30 31 32 33 34 35 36 37 38 39 40 41 42 43 44 45 46 47 48 49 50

000
ASUS41 KOKX 230408
RWROKX

REGIONAL WEATHER ROUNDUP
NATIONAL WEATHER SERVICE NEW YORK NY
1200 AM EDT SAT MAY 23 2015

NOTE: "FAIR" INDICATES FEW OR NO CLOUDS BELOW 12,000 FEET WITH NO
SIGNIFICANT WEATHER AND/OR OBSTRUCTIONS TO VISIBILITY.

NYZ071-072-176-178-NJZ106-104-230500-
NEW YORK CITY METRO AREA


CITY           SKY/WX    TMP DP  RH WIND       PRES   REMARKS
CENTRAL PARK   CLEAR     61  31  32 VRB5      30.18R
LAGUARDIA APRT CLEAR     61  34  36 NW13G22   30.14R
KENNEDY INTL   PTCLDY    62  30  29 NW17      30.15R
NEWARK/LIBERTY CLEAR     60  33  36 NW13      30.15R
BRNX BOT. GARD   N/A     59  32  36 N20       30.15R
TETERBORO      CLEAR     59  32  36 CALM      30.15R
$$

NYZ177-179-078>081-230500-
LONG ISLAND NEW YORK

CITY           SKY/WX    TMP DP  RH WIND       PRES   REMARKS
FARMINGDALE    PTCLDY    60  33  36 N10       30.14R
ISLIP          PTCLDY    58  34  40 N8        30.11R
SHIRLEY        MOCLDY    58  33  39 N8        30.13R
WESTHAMPTON    PTCLDY    57  33  40 N9        30.13R
MONTAUK POINT    N/A     57  39  51 NW7       30.12R
$$

NYZ052-065-067-230500-
HUDSON VALLEY

CITY           SKY/WX    TMP DP  RH WIND       PRES   REMARKS
WHITE PLAINS   CLEAR     56  32  40 NW12      30.13R
NEWBURGH       CLEAR     52  36  54 NW14      30.18R
MONTGOMERY     CLEAR     53  33  46 NW9       30.17R
POUGHKEEPSIE   CLEAR     55  32  41 W10       30.15R
ALBANY         PTCLDY    48  32  53 NW14      30.18R
$$

NJZ001-105-106-008-010-013-015-019>022-104-230500-
NEW JERSEY

CITY           SKY/WX    TMP DP  RH WIND       PRES   REMARKS
NEWARK/LIBERTY CLEAR     60  33  36 NW13      30.15R
TETERBORO      CLEAR     59  32  36 CALM      30.15R
CALDWELL       CLEAR     57  33  40 VRB6      30.17R
MORRISTOWN     CLEAR     59  32  36 NW3       30.17R
SOMERVILLE     CLEAR     49  42  77 CALM      30.15R
SUSSEX         CLEAR     54  32  43 N8        30.20R
ANDOVER          N/A     53  35  50 N9        30.19R
TRENTON        CLEAR     58  35  42 N6        30.17R
MILLVILLE      CLEAR     60  44  55 W7        30.18R
ATLANTIC CITY  CLEAR     60  43  53 W8        30.16R
WRIGHTSTOWN    CLEAR     58  37  45 N8        30.15R
TOMS RIVER     CLEAR    N/A N/A N/A NW12      30.16R
BELMAR         CLEAR     55  39  54 NW10      30.15R
$$

PAZ047>061-062-071-230500-
EASTERN PENNSYLVANIA

CITY           SKY/WX    TMP DP  RH WIND       PRES   REMARKS
PHILADELPHIA   CLEAR     66  21  18 NW12      30.18R
ALLENTOWN      CLEAR     56  33  42 NW6       30.18R
SCRANTON       CLEAR     51  28  41 N10       30.23R
$$

CTZ002-004>006-009-010-012-RIZ004-006-007-MAZ004-011-015-230500-
SOUTHERN NEW ENGLAND
 IN CT

CITY           SKY/WX    TMP DP  RH WIND       PRES   REMARKS
BRADLEY INTL   CLEAR     54  28  36 NW9       30.11R
HARTFORD       CLEAR     55  28  35 VRB5      30.12R
DANBURY        CLEAR     52  31  44 W3        30.15R
WTRBRY/OXFORD  CLEAR     52  30  43 N3        30.14S
BRIDGEPORT     PTCLDY    57  32  38 NW7       30.12R
MERIDEN        CLEAR     50  33  52 CALM      30.13R
NEW HAVEN      PTCLDY    56  31  38 N8        30.12R
CHESTER        FAIR      55  30  38 N13       30.11R
GROTON         PTCLDY    57  28  33 NW13      30.09R
WILLIMANTIC    CLEAR     54  29  38 W6        30.11R

 IN RI

CITY           SKY/WX    TMP DP  RH WIND       PRES   REMARKS
PROVIDENCE     CLEAR     58  24  27 NW16G29   30.09R
BLOCK ISLAND   CLOUDY    55  32  41 N9        30.10R
WESTERLY       PTCLDY    56  29  35 VRB5      30.10R

 IN MA

CITY           SKY/WX    TMP DP  RH WIND       PRES   REMARKS
BOSTON         PTCLDY    57  25  29 W13G22    30.06R
WORCESTER      CLEAR     51  22  31 W10G22    30.08R
WESTFIELD      CLEAR     51  28  41 MISG      30.10R
PROVINCETOWN   CLEAR     52  39  62 CALM      30.05R
NANTUCKET      MOCLDY    60  34  37 NW16      30.05R
$$

ANZ330-335-338-340-345-350-353-355-230500-
COASTAL MARINE OBSERVATIONS


STATION/POSITION TIME  SKY/WX   TEMP    WIND        PRES    VSBY  WAVE
                                AIR SEA DIR/SP/G                  HT/PER
                 (UTC)          (F)     (DEG/KT/KT) (MB)    (MI)  (FT/S)
NY HARB ENTRANCE 0350            61 57  340/ 14/ 16 1020.0          2/ 7
4S FIRE IS       0303               54                N/A           3/ 7
20S FIRE ISLAND  0350            60 56  350/ 14/ 16 1019.7          3/ 5
GREAT SOUTH BAY  0330            62 63  360/  8/ 12   N/A
23SW MTP         0350            57 52  340/ 12/ 14 1019.0          2/ 4
HUDSON CANYON    NOT AVBL
KINGS POINT      0300            62 56   10/ 12/ 17 1019.2
CENTRAL LI SOUND 0300            58 52  320/ 10/ 12   N/A
EASTERN LI SOUND 0300            58     340/ 14/ 19   N/A
ROBBINS REEF     0300            63     340/ 16/ 21 1019.0
$$


>>>>>>>>>>>>>>>>>>>>>>>>>>>> KEY <<<<<<<<<<<<<<<<<<<<<<<<<<<
>                                                          <
>     SKY/WX - SKY CONDITION/PRESENT WEATHER               <
>     TMP    - TEMPERATURE IN FAHRENHEIT                   <
>     DP     - DEWPOINT IN FAHRENHEIT                      <
>     RH     - RELATIVE HUMIDITY IN PERCENT                <
>     WIND   - DIRECTION AND SPEED IN MPH                  <
>     PRES   - MEAN SEA LEVEL PRESSURE IN INCHES OF HG     <
>     WCI    - WIND CHILL INDEX                            <
>     VSB    - VISIBILITY IN MILES                         <
>     HX     - HEAT INDEX                                  <
>     TC     - TEMPERATURE IN CELSIUS                      <
>     VRB    - VARIABLE WIND DIRECTION                     <
>                                                          <
>>>>>>>>>>>>>>>>>>>>>>>>>>>> KEY <<<<<<<<<<<<<<<<<<<<<<<<<<<





USA.gov is the U.S. government's official web portal to all federal, state and local government web resources and services.